TimeEDT,TemperatureF,Dew PointF,Humidity,Sea Level PressureIn,VisibilityMPH,Wind Direction,Wind SpeedMPH,Gust SpeedMPH,PrecipitationIn,Events,Conditions,WindDirDegrees,DateUTC
12:15 AM,59.0,59.0,100,30.23,5.0,SSW,4.6,-,N/A,,Overcast,200,2013-09-19 04:15:00
12:35 AM,59.0,59.0,100,30.23,5.0,SSW,4.6,-,N/A,,Overcast,210,2013-09-19 04:35:00
12:55 AM,59.0,59.0,100,30.23,5.0,SSW,3.5,-,N/A,,Overcast,210,2013-09-19 04:55:00
1:15 AM,59.0,59.0,100,30.23,5.0,SSW,5.8,-,N/A,,Overcast,210,2013-09-19 05:15:00
1:35 AM,59.0,59.0,100,30.22,4.0,SW,5.8,-,N/A,,Overcast,220,2013-09-19 05:35:00
1:55 AM,59.0,59.0,100,30.22,5.0,SW,3.5,-,N/A,,Overcast,220,2013-09-19 05:55:00
2:15 AM,59.0,59.0,100,30.22,4.0,SW,4.6,-,N/A,,Overcast,220,2013-09-19 06:15:00
2:35 AM,59.0,59.0,100,30.22,4.0,SSW,5.8,-,N/A,,Overcast,210,2013-09-19 06:35:00
2:55 AM,59.0,59.0,100,30.22,4.0,SW,3.5,-,N/A,,Overcast,220,2013-09-19 06:55:00
3:15 AM,59.0,59.0,100,30.22,4.0,SW,5.8,-,N/A,,Overcast,220,2013-09-19 07:15:00
3:35 AM,59.0,59.0,100,30.21,4.0,SSW,3.5,-,N/A,,Overcast,210,2013-09-19 07:35:00
3:55 AM,59.0,59.0,100,30.21,4.0,Calm,Calm,-,N/A,,Overcast,0,2013-09-19 07:55:00
4:15 AM,59.0,59.0,100,30.21,5.0,SSW,3.5,-,N/A,,Overcast,210,2013-09-19 08:15:00
4:35 AM,60.8,60.8,100,30.21,5.0,Calm,Calm,-,N/A,,Overcast,0,2013-09-19 08:35:00
4:55 AM,59.0,59.0,100,30.21,5.0,SW,4.6,-,N/A,,Overcast,230,2013-09-19 08:55:00
5:15 AM,59.0,59.0,100,30.21,5.0,SW,5.8,-,N/A,,Overcast,220,2013-09-19 09:15:00
5:35 AM,59.0,59.0,100,30.21,4.0,SW,4.6,-,N/A,,Overcast,220,2013-09-19 09:35:00
5:55 AM,59.0,59.0,100,30.21,4.0,SSW,4.6,-,N/A,,Overcast,210,2013-09-19 09:55:00
6:15 AM,59.0,59.0,100,30.21,4.0,SSW,4.6,-,N/A,,Overcast,210,2013-09-19 10:15:00
6:35 AM,59.0,59.0,100,30.21,4.0,SW,4.6,-,N/A,,Overcast,230,2013-09-19 10:35:00
6:55 AM,59.0,59.0,100,30.22,4.0,SW,4.6,-,N/A,,Overcast,230,2013-09-19 10:55:00
7:15 AM,59.0,59.0,100,30.22,2.5,SW,4.6,-,N/A,,Overcast,220,2013-09-19 11:15:00
7:35 AM,59.0,59.0,100,30.22,3.0,SW,6.9,-,N/A,,Overcast,230,2013-09-19 11:35:00
7:55 AM,60.8,60.8,100,30.22,4.0,SW,4.6,-,N/A,,Overcast,220,2013-09-19 11:55:00
8:15 AM,60.8,60.8,100,30.22,4.0,SW,4.6,-,N/A,,Overcast,220,2013-09-19 12:15:00
8:35 AM,60.8,60.8,100,30.22,4.0,SW,6.9,-,N/A,,Overcast,220,2013-09-19 12:35:00
8:55 AM,62.6,62.6,100,30.23,5.0,WSW,5.8,-,N/A,,Overcast,250,2013-09-19 12:55:00
9:15 AM,62.6,62.6,100,30.23,5.0,WSW,5.8,-,N/A,Rain,Light Rain,250,2013-09-19 13:15:00
9:35 AM,62.6,62.6,100,30.24,5.0,WSW,8.1,-,N/A,,Light Drizzle,240,2013-09-19 13:35:00
9:55 AM,62.6,62.6,100,30.24,5.0,WSW,5.8,-,N/A,,Overcast,240,2013-09-19 13:55:00
10:15 AM,62.6,62.6,100,30.24,7.0,SW,8.1,-,N/A,,Overcast,230,2013-09-19 14:15:00
10:35 AM,64.4,64.4,100,30.25,7.0,WSW,8.1,-,0.01,,Overcast,240,2013-09-19 14:35:00
10:55 AM,64.4,64.4,100,30.24,7.0,SW,8.1,-,0.01,,Overcast,220,2013-09-19 14:55:00
11:15 AM,64.4,64.4,100,30.25,7.0,SW,5.8,-,N/A,,Overcast,220,2013-09-19 15:15:00
11:35 AM,64.4,64.4,100,30.25,10.0,WSW,5.8,-,N/A,,Overcast,240,2013-09-19 15:35:00
11:55 AM,64.4,64.4,100,30.25,10.0,WSW,6.9,-,N/A,,Overcast,240,2013-09-19 15:55:00
12:15 PM,66.2,66.2,100,30.24,10.0,SW,6.9,-,N/A,,Overcast,230,2013-09-19 16:15:00
12:35 PM,68.0,68.0,100,30.24,10.0,SW,8.1,-,N/A,,Overcast,230,2013-09-19 16:35:00
12:55 PM,68.0,68.0,100,30.24,10.0,WSW,6.9,-,N/A,,Overcast,240,2013-09-19 16:55:00
1:15 PM,68.0,68.0,100,30.23,10.0,WSW,6.9,-,N/A,,Overcast,240,2013-09-19 17:15:00
1:35 PM,69.8,68.0,94,30.23,10.0,WSW,6.9,-,N/A,,Overcast,250,2013-09-19 17:35:00
1:55 PM,71.6,69.8,94,30.22,10.0,SW,9.2,-,N/A,,Overcast,230,2013-09-19 17:55:00
2:15 PM,71.6,69.8,94,30.22,10.0,West,6.9,-,N/A,,Overcast,260,2013-09-19 18:15:00
2:35 PM,71.6,64.4,78,30.21,10.0,SW,6.9,-,N/A,,Overcast,230,2013-09-19 18:35:00
2:55 PM,73.4,66.2,78,30.21,10.0,SW,5.8,-,N/A,,Overcast,220,2013-09-19 18:55:00
3:15 PM,73.4,64.4,73,30.20,10.0,WSW,8.1,-,N/A,,Mostly Cloudy,250,2013-09-19 19:15:00
3:35 PM,73.4,64.4,73,30.19,10.0,West,8.1,-,N/A,,Mostly Cloudy,280,2013-09-19 19:35:00
3:55 PM,73.4,64.4,73,30.19,10.0,WSW,4.6,-,N/A,,Overcast,250,2013-09-19 19:55:00
4:15 PM,71.6,64.4,78,30.19,10.0,NW,4.6,-,N/A,,Overcast,320,2013-09-19 20:15:00
4:35 PM,71.6,64.4,78,30.19,10.0,WNW,5.8,-,N/A,,Mostly Cloudy,290,2013-09-19 20:35:00
4:55 PM,73.4,64.4,73,30.19,10.0,West,5.8,-,N/A,,Scattered Clouds,260,2013-09-19 20:55:00
5:15 PM,73.4,64.4,73,30.18,10.0,SW,5.8,-,N/A,,Clear,220,2013-09-19 21:15:00
5:35 PM,73.4,64.4,73,30.18,10.0,SW,3.5,-,N/A,,Scattered Clouds,220,2013-09-19 21:35:00
5:55 PM,71.6,66.2,83,30.18,10.0,SW,5.8,-,N/A,,Mostly Cloudy,220,2013-09-19 21:55:00
6:15 PM,71.6,64.4,78,30.18,10.0,SW,5.8,-,N/A,,Mostly Cloudy,230,2013-09-19 22:15:00
6:35 PM,69.8,64.4,83,30.18,10.0,SW,4.6,-,N/A,,Overcast,220,2013-09-19 22:35:00
6:55 PM,69.8,64.4,83,30.18,10.0,SW,3.5,-,N/A,,Mostly Cloudy,220,2013-09-19 22:55:00
7:15 PM,69.8,64.4,83,30.18,10.0,Calm,Calm,-,N/A,,Scattered Clouds,0,2013-09-19 23:15:00
7:35 PM,68.0,64.4,88,30.18,10.0,Calm,Calm,-,N/A,,Mostly Cloudy,0,2013-09-19 23:35:00
7:55 PM,68.0,68.0,100,30.17,10.0,South,3.5,-,N/A,,Scattered Clouds,180,2013-09-19 23:55:00
8:15 PM,68.0,68.0,100,30.17,10.0,South,3.5,-,N/A,,Scattered Clouds,190,2013-09-20 00:15:00
8:35 PM,68.0,68.0,100,30.17,10.0,SSW,3.5,-,N/A,,Mostly Cloudy,200,2013-09-20 00:35:00
8:55 PM,68.0,68.0,100,30.17,10.0,South,4.6,-,N/A,,Mostly Cloudy,180,2013-09-20 00:55:00
9:15 PM,66.2,66.2,100,30.17,10.0,South,4.6,-,N/A,,Scattered Clouds,180,2013-09-20 01:15:00
9:35 PM,64.4,64.4,100,30.17,7.0,South,3.5,-,N/A,,Clear,190,2013-09-20 01:35:00
9:55 PM,64.4,64.4,100,30.16,7.0,South,3.5,-,N/A,,Clear,190,2013-09-20 01:55:00
10:15 PM,64.4,64.4,100,30.16,7.0,SSW,3.5,-,N/A,,Clear,210,2013-09-20 02:15:00
10:35 PM,64.4,64.4,100,30.16,7.0,SSW,3.5,-,N/A,,Clear,200,2013-09-20 02:35:00
10:55 PM,62.6,62.6,100,30.16,7.0,SSW,4.6,-,N/A,,Clear,200,2013-09-20 02:55:00
11:15 PM,64.4,64.4,100,30.17,7.0,SSW,3.5,-,N/A,,Clear,200,2013-09-20 03:15:00
11:35 PM,62.6,62.6,100,30.16,7.0,South,3.5,-,N/A,,Clear,190,2013-09-20 03:35:00
11:55 PM,62.6,62.6,100,30.16,7.0,SSW,4.6,-,N/A,,Clear,200,2013-09-20 03:55:00